Wind from 057 at 4 knots gusting 13

Air temperature 17.2° C
Dewpoint 2.4° C

Last reported at 2014-Apr-23 11:46 UTC.
Time now 2014-Apr-23 13:05 UTC

Location: N 57°49' E 012°21'.
View on Google Maps.

See reports from other nearby stations

Tides Stations Pressure Air Temp Water Temp Dewpoint Dewpoint depression Visibility Wind Speed Wind Dir Waves Ship positions

  
sailing weather and tide predictions

DW7076 Floda SE weather

date/time (UTC)wind fromknots sea level pressurealtimeterstation pressurevisibilityair tempwater tempwave heightnotes
2014-Apr-23 11:46 057 4 gusting 13 17.2
2014-Apr-23 11:36 065 6 gusting 11 16.7
2014-Apr-23 11:26 053 6 gusting 11 16.7
2014-Apr-23 11:16 097 4 gusting 7 16.7
2014-Apr-23 11:06 118 6 gusting 10 16.7
2014-Apr-23 10:56 087 6 gusting 10 16.1
2014-Apr-23 10:46 067 4 gusting 10 15.6
2014-Apr-23 10:36 079 4 gusting 11 13.3
2014-Apr-23 10:26 033 6 gusting 13 13.3
2014-Apr-23 10:16 061 6 gusting 12 13.3
2014-Apr-23 10:06 080 6 gusting 10 12.8
2014-Apr-23 09:56 054 5 gusting 11 13.3
2014-Apr-23 09:46 075 3 gusting 10 13.9
2014-Apr-23 09:36 107 2 gusting 12 13.3
2014-Apr-23 09:26 076 3 gusting 10 12.8
2014-Apr-23 09:16 060 4 gusting 10 12.2
2014-Apr-23 09:06 059 3 gusting 10 12.2
2014-Apr-23 08:56 069 4 gusting 8 11.7
2014-Apr-23 08:46 067 4 gusting 13 11.7
2014-Apr-23 08:36 068 5 gusting 13 11.7
2014-Apr-23 08:26 063 3 gusting 10 11.7
2014-Apr-23 08:16 061 6 gusting 11 11.1
2014-Apr-23 08:06 064 6 gusting 11 11.1
2014-Apr-23 07:56 093 6 gusting 12 11.7
2014-Apr-23 07:46 063 5 gusting 8 10.6
2014-Apr-23 07:36 043 5 gusting 11 10.6
2014-Apr-23 07:26 061 5 gusting 10 10.6
2014-Apr-23 07:16 068 2 gusting 6 10.6
2014-Apr-23 07:06 047 1 gusting 10 10.6
2014-Apr-23 06:56 065 2 gusting 8 10.6
2014-Apr-23 06:46 068 6 gusting 10 10.0
2014-Apr-23 06:36 070 5 gusting 10 10.0
2014-Apr-23 06:26 061 2 gusting 10 9.4
2014-Apr-23 06:16 065 2 gusting 6 9.4
2014-Apr-23 06:06 070 2 gusting 5 8.9
2014-Apr-23 05:56 074 1 gusting 6 8.9
2014-Apr-23 05:46 068 2 gusting 7 8.9
2014-Apr-23 05:36 061 3 gusting 8 8.9
2014-Apr-23 05:26 079 4 gusting 8 8.9
2014-Apr-23 05:16 071 6 gusting 10 8.9
2014-Apr-23 05:06 071 1 gusting 6 8.9
2014-Apr-23 04:56 069 4 gusting 7 8.9
2014-Apr-23 04:46 056 1 gusting 4 8.3
2014-Apr-23 04:36 069 3 gusting 7 8.9
2014-Apr-23 04:26 083 1 gusting 6 8.9
2014-Apr-23 04:16 078 1 gusting 5 8.9
2014-Apr-23 04:06 059 1 gusting 7 8.9
2014-Apr-23 03:56 063 1 gusting 7 8.9
2014-Apr-23 03:46 076 2 gusting 8 8.9
2014-Apr-23 03:36 088 2 gusting 8 9.4
2014-Apr-23 03:26 072 1 gusting 8 9.4
2014-Apr-23 03:16 070 2 gusting 6 9.4
2014-Apr-23 03:06 066 4 gusting 8 9.4
2014-Apr-23 02:56 078 2 gusting 6 9.4
2014-Apr-23 02:46 080 4 gusting 7 10.0
2014-Apr-23 02:36 076 4 gusting 7 10.0
2014-Apr-23 02:26 078 2 gusting 6 10.0
2014-Apr-23 02:16 078 4 gusting 8 10.6
2014-Apr-23 02:06 088 2 gusting 6 10.6
2014-Apr-23 01:56 069 2 gusting 6 11.1
2014-Apr-23 01:46 069 3 gusting 6 11.1
2014-Apr-23 01:36 059 1 gusting 6 11.1
2014-Apr-23 01:26 084 1 gusting 6 11.7
2014-Apr-23 01:16 070 1 gusting 5 11.7
2014-Apr-23 01:06 055 2 gusting 4 11.7
2014-Apr-23 00:56 061 1 gusting 5 11.7
2014-Apr-23 00:46 066 1 gusting 6 11.7
2014-Apr-23 00:36 063 1 gusting 6 12.2
2014-Apr-23 00:26 066 1 gusting 6 12.2
2014-Apr-23 00:16 053 0 gusting 2 12.2
2014-Apr-23 00:06 053 1 gusting 5 12.2
2014-Apr-22 23:56 067 1 gusting 4 12.2
2014-Apr-22 23:46 074 1 gusting 2 12.8
2014-Apr-22 23:36 069 0 gusting 2 12.8
2014-Apr-22 23:26 063 0 gusting 2 12.8
2014-Apr-22 23:16 090 0 gusting 1 12.8
2014-Apr-22 23:06 090 0 gusting 2 12.8
2014-Apr-22 22:56 088 1 gusting 2 13.3
2014-Apr-22 22:46 092 1 gusting 5 13.3
2014-Apr-22 22:36 104 1 gusting 5 13.3
2014-Apr-22 22:26 100 1 gusting 4 13.3
2014-Apr-22 22:16 081 1 gusting 6 13.3
2014-Apr-22 22:06 096 3 gusting 6 13.3
2014-Apr-22 21:56 090 1 gusting 2 13.3
2014-Apr-22 21:46 096 0 gusting 2 13.3
2014-Apr-22 21:36 076 13.3
2014-Apr-22 21:26 076 0 gusting 2 13.9
2014-Apr-22 21:16 076 13.9
2014-Apr-22 21:06 076 0 gusting 2 13.9
2014-Apr-22 20:56 069 1 gusting 2 13.9
2014-Apr-22 20:46 058 0 gusting 2 13.9
2014-Apr-22 20:36 105 1 gusting 5 13.9
2014-Apr-22 20:26 066 0 gusting 2 13.9
2014-Apr-22 20:16 059 13.9
2014-Apr-22 20:06 343 0 gusting 2 13.9
2014-Apr-22 19:56 070 0 gusting 2 13.9
2014-Apr-22 19:46 076 0 gusting 4 14.4
2014-Apr-22 19:36 069 0 gusting 2 14.4
2014-Apr-22 19:26 069 0 gusting 2 14.4
2014-Apr-22 19:16 069 0 gusting 1 15.0
2014-Apr-22 19:06 069 15.0
2014-Apr-22 18:56 069 15.0
2014-Apr-22 18:46 069 15.0
2014-Apr-22 18:36 069 0 gusting 1 15.6
2014-Apr-22 18:26 069 0 gusting 2 15.6
2014-Apr-22 18:16 069 1 gusting 2 15.6
2014-Apr-22 18:06 069 0 gusting 1 15.6
2014-Apr-22 17:56 104 0 gusting 2 16.1
2014-Apr-22 17:46 078 0 gusting 2 16.1
2014-Apr-22 17:36 078 0 gusting 4 16.1
2014-Apr-22 17:26 056 1 gusting 2 16.1
2014-Apr-22 17:16 077 1 gusting 6 16.7
2014-Apr-22 17:06 061 1 gusting 4 16.7
2014-Apr-22 16:56 061 1 gusting 4 16.7
2014-Apr-22 16:46 065 1 gusting 6 16.7
2014-Apr-22 16:36 066 2 gusting 6 16.7
2014-Apr-22 16:26 078 0 gusting 6 16.7
2014-Apr-22 16:16 064 2 gusting 4 16.7
2014-Apr-22 16:06 061 1 gusting 4 17.2
2014-Apr-22 15:56 077 1 gusting 6 17.2
2014-Apr-22 15:46 093 4 gusting 6 17.2
2014-Apr-22 15:36 060 2 gusting 6 17.2
2014-Apr-22 15:26 084 1 gusting 4 17.8
2014-Apr-22 14:56 065 1 gusting 5 18.3
2014-Apr-22 14:46 080 3 gusting 7 18.3
2014-Apr-22 14:36 086 2 gusting 7 18.3
2014-Apr-22 14:26 076 3 gusting 7 18.3
2014-Apr-22 14:16 080 2 gusting 6 18.9
2014-Apr-22 14:06 070 1 gusting 7 18.9
2014-Apr-22 13:56 066 2 gusting 8 18.9
2014-Apr-22 13:46 081 2 gusting 10 19.4
2014-Apr-22 13:36 072 4 gusting 10 19.4
2014-Apr-22 13:26 078 3 gusting 8 20.0
2014-Apr-22 13:16 082 2 gusting 10 19.4
2014-Apr-22 13:06 101 3 gusting 6 19.4
2014-Apr-22 12:56 076 2 gusting 7 18.3
2014-Apr-22 12:46 047 1 gusting 8 17.2
2014-Apr-22 12:36 072 2 gusting 6 16.7
2014-Apr-22 12:26 063 1 gusting 8 16.1
2014-Apr-22 12:16 092 2 gusting 8 16.1
2014-Apr-22 12:06 350 4 gusting 6 16.1
2014-Apr-22 11:56 060 2 gusting 8 16.1
2014-Apr-22 11:46 071 2 gusting 6 16.1
2014-Apr-22 11:36 080 2 gusting 10 16.1
2014-Apr-22 11:26 057 4 gusting 10 16.1
2014-Apr-22 11:16 087 2 gusting 6 16.1
2014-Apr-22 11:06 024 2 gusting 6 16.1
2014-Apr-22 10:56 065 4 gusting 10 16.1
2014-Apr-22 10:46 059 3 gusting 7 15.6
2014-Apr-22 10:36 067 1 gusting 10 15.6
2014-Apr-22 10:26 079 5 gusting 8 15.6
2014-Apr-22 10:16 061 1 gusting 6 15.6
2014-Apr-22 10:06 061 2 gusting 6 15.0
2014-Apr-22 09:56 080 1 gusting 8 15.0
2014-Apr-22 09:46 090 3 gusting 6 15.0
2014-Apr-22 09:36 073 1 gusting 6 15.0
2014-Apr-22 09:26 064 2 gusting 6 15.0
2014-Apr-22 09:16 073 4 gusting 10 15.0
2014-Apr-22 09:06 069 6 gusting 10 15.0
2014-Apr-22 08:56 053 2 gusting 6 15.6
2014-Apr-22 08:46 066 4 gusting 12 15.6
2014-Apr-22 08:36 093 2 gusting 6 15.6
2014-Apr-22 08:26 059 1 gusting 4 15.0
2014-Apr-22 08:16 021 1 gusting 4 13.9
2014-Apr-22 08:06 076 0 gusting 7 12.8
2014-Apr-22 07:56 053 1 gusting 6 12.2
2014-Apr-22 07:46 005 1 gusting 5 12.2
2014-Apr-22 07:36 356 2 gusting 6 12.2
2014-Apr-22 07:26 062 1 gusting 4 11.7
2014-Apr-22 07:16 014 0 gusting 4 11.7
2014-Apr-22 07:06 039 0 gusting 2 11.7
2014-Apr-22 06:56 049 1 gusting 4 11.1
2014-Apr-22 06:46 049 2 gusting 6 11.1
2014-Apr-22 06:36 050 0 gusting 4 10.6
2014-Apr-22 06:26 064 1 gusting 6 10.6
2014-Apr-22 06:16 050 0 gusting 2 10.6
2014-Apr-22 06:06 023 0 gusting 2 10.6
2014-Apr-22 05:56 057 0 gusting 2 10.0
2014-Apr-22 05:46 046 0 gusting 4 10.0
2014-Apr-22 05:36 001 1 gusting 2 10.0
2014-Apr-22 05:26 052 0 gusting 2 10.0
2014-Apr-22 05:16 355 0 gusting 1 10.0
2014-Apr-22 05:06 355 0 gusting 1 10.0
2014-Apr-22 04:56 051 9.4
2014-Apr-22 04:46 329 0 gusting 1 9.4
2014-Apr-22 04:36 329 9.4
2014-Apr-22 04:26 329 9.4
2014-Apr-22 04:16 329 9.4
2014-Apr-22 04:06 329 9.4
2014-Apr-22 03:56 329 9.4
2014-Apr-22 03:46 323 9.4
2014-Apr-22 03:36 323 9.4
2014-Apr-22 03:26 323 9.4
2014-Apr-22 03:16 323 9.4
2014-Apr-22 03:06 036 0 gusting 1 9.4
2014-Apr-22 02:56 036 9.4
2014-Apr-22 02:46 036 0 gusting 1 9.4
2014-Apr-22 02:36 036 9.4
2014-Apr-22 02:26 036 9.4
2014-Apr-22 02:16 036 9.4
2014-Apr-22 02:06 036 9.4
2014-Apr-22 01:56 036 0 gusting 1 9.4
2014-Apr-22 01:46 036 9.4
2014-Apr-22 01:36 035 9.4
2014-Apr-22 01:26 035 9.4
2014-Apr-22 01:16 035 0 gusting 2 10.0
2014-Apr-22 01:06 049 10.0
2014-Apr-22 00:56 049 10.0
2014-Apr-22 00:46 049 10.0
2014-Apr-22 00:36 049 0 gusting 1 10.6
2014-Apr-22 00:26 049 10.6
2014-Apr-22 00:16 051 10.6
2014-Apr-22 00:06 051 11.1
2014-Apr-21 23:56 051 11.1
2014-Apr-21 23:46 051 11.1
2014-Apr-21 23:36 051 0 gusting 1 11.1
2014-Apr-21 23:26 051 11.1
2014-Apr-21 23:16 051 0 gusting 2 11.1
2014-Apr-21 23:06 085 11.7
2014-Apr-21 22:56 085 11.7
2014-Apr-21 22:46 084 11.7
2014-Apr-21 22:36 084 1 gusting 5 11.7
2014-Apr-21 22:26 049 12.2
2014-Apr-21 22:16 049 0 gusting 1 12.2
2014-Apr-21 22:06 049 12.2
2014-Apr-21 21:56 049 12.2
2014-Apr-21 21:46 049 12.2
2014-Apr-21 21:36 049 0 gusting 1 12.2
2014-Apr-21 21:26 050 12.8
2014-Apr-21 21:16 049 12.8
2014-Apr-21 21:06 049 0 gusting 1 12.8
2014-Apr-21 20:56 029 12.8
2014-Apr-21 20:46 029 0 gusting 1 12.8
2014-Apr-21 20:36 029 13.3
2014-Apr-21 20:26 030 0 gusting 1 13.3
2014-Apr-21 20:16 030 13.9
2014-Apr-21 20:06 030 0 gusting 2 13.9
2014-Apr-21 19:46 030 0 gusting 2 14.4
2014-Apr-21 19:36 011 14.4
2014-Apr-21 19:26 060 15.0
2014-Apr-21 19:16 060 15.0
2014-Apr-21 19:06 062 0 gusting 2 15.6
2014-Apr-21 18:56 065 0 gusting 2 15.6
2014-Apr-21 18:46 030 16.1
2014-Apr-21 18:36 019 16.1
2014-Apr-21 18:26 019 0 gusting 1 16.7
2014-Apr-21 18:16 019 0 gusting 2 16.7
2014-Apr-21 18:06 024 0 gusting 1 17.2
2014-Apr-21 17:56 067 1 gusting 2 17.2
2014-Apr-21 17:46 061 17.8
2014-Apr-21 17:36 040 1 gusting 2 17.8
2014-Apr-21 17:26 065 0 gusting 2 18.3
2014-Apr-21 17:16 063 2 gusting 5 18.3
2014-Apr-21 17:06 055 1 gusting 6 18.9
2014-Apr-21 16:56 062 2 gusting 10 18.9
2014-Apr-21 16:46 065 5 gusting 8 19.4
2014-Apr-21 16:36 055 4 gusting 8 20.0
2014-Apr-21 16:26 055 4 gusting 8 20.6
2014-Apr-21 16:16 075 3 gusting 7 20.6
2014-Apr-21 16:06 071 5 gusting 10 20.6
2014-Apr-21 15:56 091 5 gusting 7 21.1
2014-Apr-21 15:46 075 3 gusting 10 21.1
2014-Apr-21 15:36 051 4 gusting 8 21.1
2014-Apr-21 15:26 085 3 gusting 8 21.1
2014-Apr-21 15:16 065 2 gusting 11 21.7
2014-Apr-21 15:06 109 4 gusting 8 21.7
2014-Apr-21 14:56 076 4 gusting 10 22.2
2014-Apr-21 14:46 071 4 gusting 8 22.2
2014-Apr-21 14:36 051 6 gusting 10 22.2
2014-Apr-21 14:26 032 1 gusting 8 22.8
2014-Apr-21 14:16 083 4 gusting 12 22.8
2014-Apr-21 14:06 058 5 gusting 10 22.8
2014-Apr-21 13:56 069 6 gusting 11 22.8
2014-Apr-21 13:46 049 6 gusting 12 22.2
2014-Apr-21 13:36 057 1 gusting 10 22.2
2014-Apr-21 13:26 103 6 gusting 11 22.2
2014-Apr-21 13:16 059 5 gusting 11 22.2
2014-Apr-21 13:06 067 4 gusting 8 22.8